WetterOnline ( https://www.wetteronline.de )

Wetter aktuell Linz

Aktuelles Wetter: Andernach (75m)

6-stündlich | Neueste Meldungen
Ortszeit Temperatur Wetter
Do, 21.11. 13:00 3.5° C bedeckt
Do, 21.11. 7:00 -0.2° C bedeckt
Do, 21.11. 1:00 -2.4° C fast wolkenlos
Mi, 20.11. 19:00 1.7° C bedeckt
Mi, 20.11. 13:00 4.8° C bedeckt
Mi, 20.11. 7:00 1.4° C bedeckt
Mi, 20.11. 1:00 1.4° C bedeckt
Di, 19.11. 19:00 2.9° C leicht bewölkt
Ortszeit Temperatur Wetter
Do, 21.11. 18:00 5.1° C bewölkt
Do, 21.11. 17:50 5.1° C bewölkt
Do, 21.11. 17:40 5.1° C leichter Regen
Do, 21.11. 17:30 5.3° C bewölkt
Do, 21.11. 17:20 5.3° C bewölkt
Do, 21.11. 17:10 5.4° C bewölkt
Do, 21.11. 17:00 5.4° C bewölkt
Do, 21.11. 16:30 5.7° C wolkig
Do, 21.11. 16:00 5.7° C bewölkt
Do, 21.11. 15:30 5.3° C bedeckt
Do, 21.11. 15:00 5.0° C bewölkt
Ortszeit Relative Feuchte Sichtweite
Do, 21.11. 13:00 85% 12 km
Do, 21.11. 7:00 99% 5.0 km
Do, 21.11. 1:00 98% 6 km
Mi, 20.11. 19:00 90% 16 km
Mi, 20.11. 13:00 84% 15 km
Mi, 20.11. 7:00 100% 4.7 km
Mi, 20.11. 1:00 98% 7 km
Di, 19.11. 19:00 99% 11 km
Ortszeit Relative Feuchte Sichtweite
Do, 21.11. 18:00 83% 13 km
Do, 21.11. 17:50 83% -
Do, 21.11. 17:40 83% -
Do, 21.11. 17:30 83% 14 km
Do, 21.11. 17:20 83% -
Do, 21.11. 17:10 83% -
Do, 21.11. 17:00 82% 15 km
Do, 21.11. 16:30 80% 16 km
Do, 21.11. 16:00 81% 15 km
Do, 21.11. 15:30 82% 13 km
Do, 21.11. 15:00 81% 15 km
Ortszeit Niederschlagsmenge Niederschlagsart
Do, 21.11. 13:00 0.0 l/m2 in 6 Std. -
Do, 21.11. 7:00 0.0 l/m2 in 12 Std. -
Do, 21.11. 1:00 0.0 l/m2 in 6 Std. -
Mi, 20.11. 19:00 0.0 l/m2 in 12 Std. -
Mi, 20.11. 13:00 0.0 l/m2 in 6 Std. -
Mi, 20.11. 7:00 0.0 l/m2 in 12 Std. -
Mi, 20.11. 1:00 0.0 l/m2 in 6 Std. -
Di, 19.11. 19:00 0.5 l/m2 in 12 Std. Regen
Ortszeit Niederschlagsmenge Niederschlagsart
Do, 21.11. 18:00 0.1 l/m2 in 1 Std. Regen
Do, 21.11. 17:50 keine Meldung -
Do, 21.11. 17:40 keine Meldung -
Do, 21.11. 17:30 0.1 l/m2 in 1 Std. Schneeregen
Do, 21.11. 17:20 keine Meldung -
Do, 21.11. 17:10 keine Meldung -
Do, 21.11. 17:00 0.1 l/m2 in 1 Std. Regen
Do, 21.11. 16:30 0.0 l/m2 in 1 Std. -
Do, 21.11. 16:00 0.0 l/m2 in 1 Std. -
Do, 21.11. 15:30 0.0 l/m2 in 1 Std. -
Do, 21.11. 15:00 0.0 l/m2 in 1 Std. -
Ortszeit Stärke Spitze Richtung
km/h Bft. km/h Grad Sektor
Do, 21.11. 13:00 4 1 11 170° S
Do, 21.11. 7:00 2 1 7 170° S
Do, 21.11. 1:00 2 1 9 220° SW
Mi, 20.11. 19:00 4 1 18 200° S
Mi, 20.11. 13:00 7 2 11 140° SO
Mi, 20.11. 7:00 4 1 14 300° NW
Mi, 20.11. 1:00 4 1 11 200° S
Di, 19.11. 19:00 2 1 22 220° SW
Ortszeit Stärke Spitze Richtung
km/h Bft. km/h Grad Sektor
Do, 21.11. 18:00 7 2 11 120° SO
Do, 21.11. 17:50 7 2 - 120° SO
Do, 21.11. 17:40 7 2 - 130° SO
Do, 21.11. 17:30 7 2 11 130° SO
Do, 21.11. 17:20 7 2 - 130° SO
Do, 21.11. 17:10 7 2 - 120° SO
Do, 21.11. 17:00 6 1 13 110° O
Do, 21.11. 16:30 7 2 13 130° SO
Do, 21.11. 16:00 4 1 7 120° SO
Do, 21.11. 15:30 4 1 7 60° NO
Do, 21.11. 15:00 0 0 7 - -
Ortszeit Untergrenze Bedeckung Gattung
total tief tief mittel hoch
Do, 21.11. 13:00 360 m 8/8 8/8 - - -
Do, 21.11. 7:00 210 m 8/8 8/8 - - -
Do, 21.11. 1:00 240 m 1/8 1/8 - - -
Mi, 20.11. 19:00 960 m 8/8 8/8 - - -
Mi, 20.11. 13:00 390 m 8/8 8/8 - - -
Mi, 20.11. 7:00 90 m 8/8 8/8 - - -
Mi, 20.11. 1:00 90 m 8/8 8/8 - - -
Di, 19.11. 19:00 870 m 3/8 6/8 - - -
Ortszeit Bedeckungsgrad in Achtel und Wolkenuntergrenze
Do, 21.11. 18:00 1(1800m) 7(2700m) 8(3600m)
Do, 21.11. 17:50 1(1800m) 7(2700m) 8(3600m)
Do, 21.11. 17:40 1(2100m) 7(2700m) 8(3600m)
Do, 21.11. 17:30 7(2400m) 8(3600m) 8(3600m)
Do, 21.11. 17:20 7(2400m) 8(3600m)
Do, 21.11. 17:10 1(1800m) 7(2400m)
Do, 21.11. 17:00 2(2100m) 7(2400m) 8(3300m)
Do, 21.11. 16:30 1(1800m) 7(3000m) 8(3900m)
Do, 21.11. 16:00 7(2400m) 8(3900m) 8(4500m)
Do, 21.11. 15:30 8(2400m) 8(3900m) 8(4200m)
Do, 21.11. 15:00 4(2400m) 8(3600m) 8(4500m)
Ortszeit Luftdruck NN (hPa) Tendenz (hPa in 3 Std.)
Do, 21.11. 13:00 1010 - 1,4
Do, 21.11. 7:00 1012 - 0,4
Do, 21.11. 1:00 1014 - 1,1
Mi, 20.11. 19:00 1016 - 0,6
Mi, 20.11. 13:00 1018 - 1,6
Mi, 20.11. 7:00 1020 - 0,1
Mi, 20.11. 1:00 1021 + 0,1
Di, 19.11. 19:00 1020 + 1,1
Ortszeit Luftdruck NN (hPa) Tendenz (hPa in 3 Std.)
Do, 21.11. 18:00 1009 0,0
Do, 21.11. 17:50 1009 keine Meldung
Do, 21.11. 17:40 1009 keine Meldung
Do, 21.11. 17:30 1009 - 0,1
Do, 21.11. 17:20 1009 keine Meldung
Do, 21.11. 17:10 1009 keine Meldung
Do, 21.11. 17:00 1009 - 0,2
Do, 21.11. 16:30 1009 - 0,4
Do, 21.11. 16:00 1009 - 0,8
Do, 21.11. 15:30 1009 - 1,2
Do, 21.11. 15:00 1009 - 1,5
Ortszeit Schneehöhe (cm)
Do, 21.11. 13:00 0
Do, 21.11. 7:00 0
Do, 21.11. 1:00 0
Mi, 20.11. 19:00 0
Mi, 20.11. 13:00 0
Mi, 20.11. 7:00 0
Mi, 20.11. 1:00 0
Di, 19.11. 19:00 0
Ortszeit Schneehöhe (cm)
Do, 21.11. 18:00 0
Do, 21.11. 17:50 0
Do, 21.11. 17:40 0
Do, 21.11. 17:30 0
Do, 21.11. 17:20 0
Do, 21.11. 17:10 0
Do, 21.11. 17:00 0
Do, 21.11. 16:30 0
Do, 21.11. 16:00 0
Do, 21.11. 15:30 0
Do, 21.11. 15:00 0
Link zu dieser Seite / Seite empfehlen

Das Wetter in ...